This is the latest recevied weather packets stored in our database for station/object KE8WMS. If no packets are shown the sender has not sent any weather packets the latest 10 day(s).
| Time | Temp. | Humidity | Pressure | Rain* | Wind** | Luminosity | Snow |
|---|---|---|---|---|---|---|---|
| 1777602238 | 6.11° C | 82% | 1011.6 hPa | 0 mm | - | 0 W/m² | - |
| 1777601935 | 6.11° C | 81% | 1011.6 hPa | 0 mm | - | 0 W/m² | - |
| 1777601634 | 6.11° C | 81% | 1011.5 hPa | 0 mm | - | 0 W/m² | - |
| 1777601330 | 6.11° C | 81% | 1011.5 hPa | 0 mm | - | 0 W/m² | - |
| 1777601027 | 6.11° C | 80% | 1011.5 hPa | 0 mm | - | 0 W/m² | - |
| 1777600724 | 6.11° C | 79% | 1011.6 hPa | 0 mm | - | 0 W/m² | - |
| 1777600420 | 6.67° C | 79% | 1011.2 hPa | 0 mm | - | 0 W/m² | - |
| 1777600116 | 6.67° C | 78% | 1011.4 hPa | 0 mm | - | 0 W/m² | - |
| 1777599811 | 6.67° C | 77% | 1011.4 hPa | 0 mm | - | 0 W/m² | - |
| 1777599507 | 7.22° C | 77% | 1011.4 hPa | 0 mm | - | 0 W/m² | - |
| 1777599204 | 7.22° C | 75% | 1011.3 hPa | 0 mm | - | 0 W/m² | - |
| 1777598900 | 7.78° C | 75% | 1011.1 hPa | 0 mm | - | 0 W/m² | - |
| 1777598598 | 8.33° C | 72% | 1011.2 hPa | 0 mm | - | 0 W/m² | - |
| 1777598294 | 8.33° C | 73% | 1011.2 hPa | 0 mm | - | 0 W/m² | - |
| 1777597992 | 8.33° C | 71% | 1011.3 hPa | 0 mm | - | 0 W/m² | - |
| 1777597691 | 8.33° C | 71% | 1011.2 hPa | 0 mm | - | 0 W/m² | - |
| 1777597387 | 8.33° C | 67% | 1011.2 hPa | 0 mm | - | 0 W/m² | - |
| 1777597082 | 8.33° C | 66% | 1011.1 hPa | 0 mm | - | 0 W/m² | - |
| 1777596779 | 8.33° C | 66% | 1011 hPa | 0 mm | - | 0 W/m² | - |
| 1777596475 | 8.89° C | 64% | 1011.1 hPa | 0 mm | - | 0 W/m² | - |
| 1777596172 | 8.89° C | 61% | 1011.2 hPa | 0 mm | - | 0 W/m² | - |
| 1777595869 | 8.89° C | 59% | 1010.9 hPa | 0 mm | - | 0 W/m² | - |
| 1777595569 | 9.44° C | 58% | 1011.1 hPa | 0 mm | - | 1 W/m² | - |
| 1777595266 | 9.44° C | 58% | 1011 hPa | 0 mm | - | 2 W/m² | - |
| 1777594962 | 9.44° C | 57% | 1010.9 hPa | 0 mm | - | 3 W/m² | - |
* Rain latest hour (hover to see other rain measurements)
** Current wind speed in m/s (hover to see current wind gust speed)